FW9691 Weather Reports


time (UTC)temp
F
wind
direction
speed
knots
gust
knots
rain 1hr
in
rain 24hr
in
rain mn
in
humidity
%
barometer
mb
20260506073008 69 120 3.5 5.2 0.00 0.00 0.00 44 1003.8
20260506071515 69 101 3.5 5.2 0.00 0.00 0.00 45 1003.7
20260506061503 69 87 2.6 4.3 0.00 0.00 0.00 46 1003.7
20260506044555 71 74 2.6 3.5 0.00 0.00 0.00 41 1003.0
20260506043049 72 74 0.0 1.7 0.00 0.00 0.00 39 1003.0
20260506041502 72 74 0.9 3.5 0.00 0.00 0.00 40 1002.9
20260506040002 71 74 0.0 3.5 0.00 0.00 0.00 40 1002.6
20260506034501 71 52 2.6 3.5 0.00 0.00 0.00 41 1002.5
20260506033002 72 24 3.5 5.2 0.00 0.00 0.00 39 1002.1
20260506031547 72 24 3.5 7.0 0.00 0.00 0.00 38 1002.1
20260506030044 72 51 2.6 4.3 0.00 0.00 0.00 39 1002.1
20260506024543 71 38 2.6 7.0 0.00 0.00 0.00 39 1001.9
20260506023043 74 345 6.1 7.8 0.00 0.00 0.00 35 1001.8
20260506021544 76 355 4.3 7.0 0.00 0.00 0.00 31 1001.7
20260506020041 77 298 4.3 7.0 0.00 0.00 0.00 29 1001.6
20260506014553 78 297 5.2 9.6 0.00 0.00 0.00 29 1001.3
20260506013049 79 283 8.7 13.0 0.00 0.00 0.00 28 1001.3
20260506011547 79 287 7.8 11.3 0.00 0.00 0.00 28 1001.1
20260506010048 80 271 7.8 11.3 0.00 0.00 0.00 27 1001.1
20260506004543 81 266 7.8 11.3 0.00 0.00 0.00 26 1001.0
20260506003040 82 259 11.3 15.6 0.00 0.00 0.00 25 1001.1
20260506001557 81 271 10.4 14.8 0.00 0.00 0.00 26 1001.0
20260506000045 81 251 11.3 16.5 0.00 0.00 0.00 26 1001.1
20260505234547 81 244 10.4 21.7 0.00 0.00 0.00 26 1001.2
20260505233046 81 221 10.4 17.4 0.00 0.00 0.00 27 1001.4
20260505231547 80 234 16.5 22.6 0.00 0.00 0.00 27 1001.4
20260505230038 80 239 15.6 23.5 0.00 0.00 0.00 28 1001.3
20260505224541 80 237 16.5 22.6 0.00 0.00 0.00 29 1001.7
20260505223042 77 223 10.4 18.2 0.00 0.00 0.00 31 1002.0
20260505221537 77 252 13.0 18.2 0.00 0.00 0.00 31 1002.0
20260505220039 77 240 13.0 16.5 0.00 0.00 0.00 32 1002.3
20260505214557 76 246 13.9 17.4 0.00 0.00 0.00 32 1002.4
20260505213053 77 254 13.9 20.0 0.00 0.00 0.00 31 1002.6
20260505211541 77 252 18.2 25.2 0.00 0.00 0.00 30 1002.7
20260505210040 78 260 22.6 29.5 0.00 0.00 0.00 28 1002.9
20260505204535 78 245 16.5 24.3 0.00 0.00 0.00 28 1002.8
20260505203037 78 249 16.5 20.9 0.00 0.00 0.00 29 1002.8
20260505201544 78 261 18.2 24.3 0.00 0.00 0.00 27 1003.0
20260505200031 78 245 15.6 22.6 0.00 0.00 0.00 28 1002.9
20260505194537 78 237 16.5 21.7 0.00 0.00 0.00 28 1003.0
20260505193043 78 232 15.6 25.2 0.00 0.00 0.00 28 1003.0
20260505191534 78 242 15.6 21.7 0.00 0.00 0.00 29 1002.8
20260505190036 78 230 7.8 17.4 0.00 0.00 0.00 30 1002.9
20260505184527 78 238 13.0 17.4 0.00 0.00 0.00 29 1003.3
20260505183042 78 217 7.0 15.6 0.00 0.00 0.00 28 1003.3
20260505181524 77 223 11.3 16.5 0.00 0.00 0.00 28 1003.6
20260505180032 78 258 8.7 12.2 0.00 0.00 0.00 27 1003.6
20260505174540 78 275 7.0 11.3 0.00 0.00 0.00 28 1003.7
20260505173040 77 294 8.7 13.9 0.00 0.00 0.00 28 1003.5
20260505171540 77 322 9.6 14.8 0.00 0.00 0.00 28 1003.7
20260505170034 76 303 10.4 18.2 0.00 0.00 0.00 29 1003.6
20260505164531 76 315 11.3 15.6 0.00 0.00 0.00 29 1003.7
20260505163022 76 222 4.3 8.7 0.00 0.00 0.00 31 1003.7
20260505161517 74 221 3.5 6.1 0.00 0.00 0.00 32 1003.7
20260505153025 74 221 4.3 9.6 0.00 0.00 0.00 30 1003.6
20260505151514 74 219 6.1 8.7 0.00 0.00 0.00 30 1003.6
20260505124604 66 218 1.7 3.5 0.00 0.00 0.00 45 1002.1
20260505123110 66 218 3.5 4.3 0.00 0.00 0.00 45 1002.1
20260505121554 65 218 0.9 3.5 0.00 0.00 0.00 49 1001.8
20260505120055 67 218 1.7 3.5 0.00 0.00 0.00 45 1001.7
20260505114602 67 218 0.0 2.6 0.00 0.00 0.00 41 1001.6
20260505113155 69 218 1.7 3.5 0.00 0.00 0.00 38 1001.5
20260505111559 69 218 2.6 4.3 0.00 0.00 0.00 38 1001.5
20260505101553 65 218 3.5 6.1 0.00 0.00 0.00 46 1001.4
20260505100057 66 218 0.0 3.5 0.00 0.00 0.00 46 1001.4
20260505094547 68 218 3.5 4.3 0.00 0.00 0.00 40 1001.3
20260505093046 69 218 4.3 6.1 0.00 0.00 0.00 38 1001.1
20260505091546 70 218 2.6 3.5 0.00 0.00 0.00 38 1001.1
20260505090049 70 218 1.7 4.3 0.00 0.00 0.00 38 1001.4
20260505084541 69 218 1.7 3.5 0.00 0.00 0.00 38 1001.3
20260505083041 69 218 0.0 2.6 0.00 0.00 0.00 38 1001.3
20260505081545 69 218 3.5 4.3 0.00 0.00 0.00 37 1001.3